Regional Weather Roundup
Issued by NWS Newport/Morehead, NC

Current Version | Previous Version | Text Only | Print | Product List | Glossary Off
Versions: 1 2 3 4 5 6 7 8 9 10 11 12 13 14 15 16 17 18 19 20 21 22 23 24 25 26 27 28 29 30 31 32 33 34 35 36 37 38 39 40 41 42 43 44 45 46 47 48 49 50
000 ASUS42 KMHX 271227 RWRMHX WEATHER ROUNDUP FOR EASTERN NORTH CAROLINA NATIONAL WEATHER SERVICE NEWPORT/MOREHEAD CITY NC 800 AM EDT FRI MAR 27 2015 NOTE: "FAIR" INDICATES FEW OR NO CLOUDS BELOW 12,000 FEET WITH NO SIGNIFICANT WEATHER AND/OR OBSTRUCTIONS TO VISIBILITY NCZ015>017-031-032-045>047-102-103-271300- NORTH COAST CITY SKY/WX TMP DP RH WIND PRES REMARKS EDENTON LGT RAIN 49 47 93 NE17G24 29.71R ELIZABETH CITY RAIN 46 45 93 N18G25 29.72R FOG KITTY HAWK RAIN 45 44 95 N8G22 29.70R MANTEO RAIN 46 45 97 N22G30 29.71R $$ NCZ045>047-081-094-103-104-271300- CENTRAL COAST CITY SKY/WX TMP DP RH WIND PRES REMARKS FRISCO LGT RAIN 61 59 93 W9 29.66F SWANQUARTER N/A 61 N/A N/A W2 29.62S $$ NCZ095-097-098-100-101-271300- SOUTHERN COAST CITY SKY/WX TMP DP RH WIND PRES REMARKS BEAUFORT CLOUDY 62 61 96 W6 29.67F CEDAR ISLAND N/A 63 N/A N/A W7 29.71S JACKSONVILLE CLOUDY 62 60 93 S3 29.66S PINEY ISLAND LGT RAIN N/A N/A N/A W7 29.66F WILMINGTON CLOUDY 63 61 93 SW6 29.67F $$ NCZ011>013-027>030-043-044-078>080-089-090>093-098-271300- COASTAL PLAIN CITY SKY/WX TMP DP RH WIND PRES REMARKS AHOSKIE CLOUDY 50 44 80 N16G22 29.73R CLINTON CLOUDY 61 60 97 CALM 29.67S ELIZABETHTOWN CLOUDY 63 60 91 SW5 29.67S GOLDSBORO PTSUNNY 62 61 99 SW3 29.64R GREENVILLE CLOUDY 61 61 100 SW5 29.69R HAVELOCK CLOUDY 62 60 93 SW5 29.68S KENANSVILLE CLOUDY 60 59 95 CALM 29.67S KINSTON CLOUDY 61 59 94 SW6 29.66R NEW BERN LGT RAIN 62 60 93 SW5 29.68S RICHLANDS CLOUDY 61 57 88 SW7 29.67F ROCKY MOUNT CLOUDY 53 46 77 N18G28 29.71R WASHINGTON CLOUDY 61 59 95 CALM 29.66R WHITEVILLE CLOUDY 63 60 91 SW6 29.67S $$ AMZ130-135-150-152-154-156-158-170-250-252-270-ANZ085-086-088-633-658-670-271300- MARINE OBSERVATIONS STATION/POSITION TIME TEMP WIND PRES WAVE SWELL AIR SEA DIR/SP/G HT/PER HT/PER (UTC) (F) (DEG/KT/KT) (MB) (FT/S) (FT/S) CHESAPEAKE LIGHT 1200 44 360/ 22/ 23 1007.0 64 E VA BEACH 1150 50 51 10/ 21/ 25 1004.5 8/ 9 7/ 9 DUCK 1200 41 350/ 15/ 17 1005.3 2 E DUCK 1211 42 N/A 4/ 9 2/11 10 NE DUCK NOT AVBL OREGON INLET 1200 60 350/ 18/ 24 1005.3 HATTERAS CG 1200 62 60 270/ 8/ 12 1004.7 CAPE LOOKOUT 1200 60 280/ 6/ 7 1004.6 BEAUFORT LAB 1200 62 58 260/ 3/ 5 1004.0 27 SE WRIGHTSVLE 1200 61 64 250/ 10/ 14 1007.3 5 SE WRIGHTSVLE 1200 59 58 210/ 8/ 10 1005.1 225 S CAPE HAT 1150 71 69 210/ 14/ 17 1010.1 9/ 7 5/13 41 SE CHARLESTON 1150 67 70 250/ 19/ 23 1006.0 6/ 7 2/13 $$

USA.gov is the U.S. government's official web portal to all federal, state and local government web resources and services.